Location: Valdosta
(30.8330°N, 83.2790°W)
Time: 08:57:24
(UTC-05:00)

Daily predictions for brighter satellites

Satellite Brightness Start Highest point End
(mag) Time Altitude Azimuth Time Altitude Azimuth Time Altitude Azimuth
CSL-04 Rocket 3.6 17:49:32 10° SSE 17:54:46 71° ENE 18:00:03 10° N
OAO 3 Copernicus 4.5 17:50:52 10° W 17:55:55 70° NNW 18:01:00 10° ENE
Cosmos 2233 Rocket 4.3 17:51:27 10° SSE 17:57:24 46° E 18:03:19 10° NNE
Cosmos 371 Rocket 3.5 17:56:47 10° N 18:01:27 50° ENE 18:06:06 10° SSE
Ariane Rocket 3.0 17:57:40 10° SSE 18:02:44 75° ENE 18:07:49 10° N
CZ-4 R/B 1.6 17:59:08 10° SSE 18:02:52 44° ENE 18:06:34 10° N
Cosmos 2242 Rocket 3.7 17:59:07 10° S 18:03:41 90° ESE 18:08:16 10° N
SJ-7 4.4 17:59:31 10° SSE 18:03:43 80° ENE 18:07:54 10° N
Cosmos 1340 3.2 18:04:16 10° SSW 18:07:59 61° W 18:11:43 10° N
Cosmos 2208 Rocket 4.0 18:03:15 10° N 18:08:27 69° ENE 18:13:41 10° SSE
Cosmos 1486 Rocket 4.4 18:08:02 10° S 18:12:52 41° E 18:17:45 10° NNE
SPOT 3 Rocket 4.5 18:09:51 10° SE 18:14:06 26° ENE 18:18:22 10° NNE
COSMOS 2406 3.3 18:09:16 10° N 18:14:53 54° ENE 18:20:25 10° SE
Cosmos 1933 4.5 18:12:03 10° SSW 18:15:57 47° W 18:19:52 10° N
SKYMED 2 3.8 18:11:55 10° NNE 18:16:07 48° E 18:20:18 10° S
METEOR-M 4.5 18:13:36 10° SE 18:18:34 42° ENE 18:23:34 10° N
Meteor 1-26 Rocket 4.2 18:15:18 10° S 18:20:57 82° E 18:26:32 10° N
Cosmos 1844 Rocket 4.1 18:17:04 10° SW 18:22:18 38° WNW 18:27:33 10° N
Cosmos 1733 Rocket 3.0 18:19:02 10° N 18:23:29 81° E 18:27:54 10° S
CZ-2C R/B 4.2 18:20:05 10° N 18:24:30 63° WNW 18:28:58 10° SSW
BREEZE M DEB (TANK) 3.9 18:11:42 10° NW 18:24:32 87° NE 18:28:09 10° SE
Cosmos 332 Rocket 4.0 18:19:45 10° NNW 18:24:36 75° WSW 18:29:29 10° S
Cosmos 1862 Rocket 4.0 18:21:10 10° SSW 18:25:31 66° W 18:29:56 10° N
ERS-2 2.4 18:22:03 10° SSE 18:25:34 45° ENE 18:29:06 10° N
Cosmos 972 Rocket 3.9 18:20:59 10° N 18:25:49 59° ENE 18:30:41 10° SSE
USA 234 3.8 18:19:43 10° NNE 18:26:06 58° NW 18:32:27 10° WSW
Cosmos 1816 Rocket 4.4 18:22:46 10° N 18:28:55 82° E 18:35:04 10° S
TSX-5 3.9 18:29:22 10° NNW 18:32:59 81° WSW 18:37:31 10° SSE
ALOS 2.8 18:33:00 10° SE 18:37:14 35° ENE 18:41:29 10° N
Cosmos 2297 4.3 18:34:22 10° SSE 18:39:27 35° ESE 18:42:54 18° NE
Cosmos 2278 Rocket 2.5 18:43:06 10° SSW 18:48:45 69° WNW 18:54:25 10° NNE
FENGYUN 3A 3.8 18:43:43 10° SSE 18:48:54 49° ENE 18:54:05 10° N
Cosmos 2034 Rocket 4.5 18:45:56 10° SSE 18:51:43 38° E 18:57:30 10° NNE
Cosmos 1833 Rocket 4.3 18:50:39 10° NNE 18:52:29 16° NNE 18:52:29 16° NNE
Thor Agena Rocket 3.9 18:53:14 23° NE 18:55:53 41° E 19:00:41 10° S
Okean 1-7 2.9 18:52:42 10° S 18:56:58 63° E 19:00:27 15° NNE
Cosmos 1782 2.7 18:54:41 10° S 18:58:43 85° E 19:02:23 12° N
Cosmos 2221 Rocket 3.5 18:56:54 10° S 19:01:16 64° E 19:04:06 21° NNE
YAOGAN 1 3.7 18:57:27 10° S 19:01:35 46° W 19:05:46 10° NNW
Cosmos 1782 Rocket 3.7 18:57:56 10° N 19:02:07 46° E 19:06:17 10° SSE
COSMO-SKYMED 1 3.9 19:00:03 10° N 19:04:07 40° WNW 19:08:10 10° SW
Meteor 2-6 Rocket 4.0 18:59:41 10° S 19:04:59 66° E 19:10:24 10° NNE
Cosmos 1606 3.0 19:04:27 10° SSW 19:08:13 65° W 19:11:16 15° N
Meteor 1-25 Rocket 4.4 19:06:21 10° N 19:12:12 78° W 19:17:59 10° S
FengYun 1-2 T 4.3 19:14:42 10° SSE 19:19:58 51° ENE 19:25:18 10° N
Meteor 1-20 Rocket 4.4 19:16:23 10° NNW 19:21:54 69° W 19:27:18 10° S
Cosmos 1464 Rocket 4.0 19:16:31 10° S 19:22:38 80° W 19:28:46 10° N
Meteor 1-27 Rocket 3.8 19:17:17 10° S 19:22:59 60° E 19:24:34 45° NE
Meteor 1-10 Rocket 4.5 19:22:46 10° SSW 19:28:19 68° W 19:34:01 10° N
Aurora 2 Rocket 4.0 19:27:13 10° WSW 19:31:07 24° SSW 19:31:44 23° S
Cosmos 1763 Rocket 4.2 19:27:23 10° NNW 19:32:25 53° WSW 19:37:22 10° S
Cosmos 1503 Rocket 4.4 19:27:17 10° SSW 19:32:32 62° WNW 19:35:16 28° N
Cosmos 405 Rocket 4.0 19:29:48 10° SSW 19:32:06 34° SSW 19:32:06 34° SSW
Cosmos 2082 Rocket 3.7 19:28:52 10° N 19:31:03 22° N 19:31:03 22° N
IUS-9 SRM-1 4.0 19:21:51 10° W 19:45:12 60° SSW 19:46:44 48° SSE
Atlas 2A Centaur Rocket 3.7 20:06:35 10° W 20:14:10 41° WSW 20:14:10 41° WSW
